Location: Poznań
(52.4062°N, 16.9234°E)
Time: 07:30:15
(UTC+02:00)

ISS - Visible Passes

Search period start: 20 September 2018 00:00
Search period end: 30 September 2018 00:00
Orbit: 402 x 408 km, 51.6° (Epoch: 20 September)

Date Brightness Start Highest point End Pass type
(mag) Time Alt. Az. Time Alt. Az. Time Alt. Az.
22 Sep -1.5 20:27:55 10° S 20:28:34 13° S 20:28:34 13° S visible
23 Sep -1.6 19:37:28 10° SSE 19:38:22 11° SE 19:39:11 10° ESE visible
23 Sep -1.4 21:11:05 10° SW 21:11:53 16° SW 21:11:53 16° SW visible
24 Sep -2.8 20:19:26 10° SSW 20:22:18 28° SSE 20:22:20 28° SSE visible
25 Sep -2.2 19:28:00 10° SSW 19:30:27 19° SE 19:32:36 11° E visible
25 Sep -2.5 21:03:16 10° WSW 21:05:17 33° SW 21:05:17 33° SW visible
26 Sep -3.4 20:11:23 10° SW 20:14:32 44° SSE 20:15:26 34° ESE visible
26 Sep -0.8 21:47:36 10° W 21:48:06 14° W 21:48:06 14° W visible
27 Sep -2.8 19:19:37 10° SW 19:22:36 32° SSE 19:25:29 11° E visible
27 Sep -3.2 20:55:33 10° WSW 20:58:09 51° WSW 20:58:09 51° WSW visible
28 Sep -3.8 20:03:32 10° WSW 20:06:49 63° SSE 20:08:07 32° E visible
28 Sep -1.0 21:39:57 10° W 21:40:47 17° W 21:40:47 17° W visible
29 Sep -3.4 19:11:35 10° WSW 19:14:47 49° SSE 19:18:00 10° E visible
29 Sep -3.5 20:47:52 10° W 20:50:42 62° WSW 20:50:42 62° WSW visible
